Naples, Italy

9:36 PM CEST on August 25, 2016 (GMT +0200)
Capodichino Mil

Weather History for LIRN - August, 2013

Change the Weather History Date:

Monday, August 5, 2013

  Actual Average Record
Temperature  
Mean Temperature 84 °F -  
Max Temperature 91 °F 84 °F 95 °F (2003)
Min Temperature 77 °F 63 °F 66 °F (2005)
Cooling Degree Days 19    
Growing Degree Days 34 (Base 50)    
Moisture  
Dew Point 71 °F    
Average Humidity 65    
Maximum Humidity 74    
Minimum Humidity 52    
Precipitation  
Precipitation 0.00 in 0.06 in - ()
Sea Level Pressure  
Sea Level Pressure 30.00 in    
Wind  
Wind Speed 3 mph ()    
Max Wind Speed 10 mph    
Max Gust Speed -    
Averages and records for this station are not official NWS values.
T = Trace of Precipitation, MM = Missing Value Source: Averaged Metar Reports

Daily Weather History Graph

Daily Weather History Graph

Search for Another Location

Airport or City:

Trip Planner

Search our weather history database for the weather conditions in past years. The results will help you decide how hot, cold, wet, or windy it might be!

Date:

Astronomy

Aug. 05, 2013 Rise Set
Actual Time 6:02 AM CEST 8:14 PM CEST
Civil Twilight 5:32 AM CEST 8:44 PM CEST
Nautical Twilight 4:55 AM CEST 9:21 PM CEST
Astronomical Twilight 4:13 AM CEST 10:02 PM CEST
Moon 4:42 AM CEST (8/5) 7:03 PM CEST (8/5)
Length of Visible Light 15h 11m
Length of Day
14h 11m
Waning Crescent, 2% of the Moon is Illuminated
Aug 5
Waning Crescent
Aug 6
New
Aug 14
First Quarter
Aug 21
Full
Aug 28
Last Quarter

Hourly Weather History & Observations

Time (CEST) Temp. Heat Index Dew Point Humidity Pressure Visibility Wind Dir Wind Speed Gust Speed Precip Events Conditions
12:20 AM 82.4 °F 87.2 °F 71.6 °F 70% 30.04 in - South 3.5 mph - N/A   Clear
12:50 AM 80.6 °F 84.6 °F 71.6 °F 74% 30.01 in - Variable 2.3 mph - N/A   Clear
1:20 AM 80.6 °F 84.6 °F 71.6 °F 74% 30.01 in - Variable 1.2 mph - N/A   Clear
1:50 AM 80.6 °F 84.6 °F 71.6 °F 74% 30.01 in - Variable 2.3 mph - N/A   Clear
2:20 AM 80.6 °F 83.9 °F 69.8 °F 70% 30.01 in - ESE 3.5 mph - N/A   Clear
2:50 AM 78.8 °F - 69.8 °F 74% 30.01 in - Variable 2.3 mph - N/A   Clear
3:20 AM 78.8 °F - 69.8 °F 74% 30.01 in - Calm Calm - N/A   Clear
3:50 AM 80.6 °F 83.9 °F 69.8 °F 70% 30.01 in - North 2.3 mph - N/A   Clear
4:20 AM 78.8 °F - 69.8 °F 74% 30.01 in - North 3.5 mph - N/A   Clear
4:50 AM 78.8 °F - 69.8 °F 74% 30.01 in - NNE 3.5 mph - N/A   Clear
5:20 AM 77.0 °F - 68.0 °F 74% 30.01 in - North 4.6 mph - N/A   Clear
5:50 AM 78.8 °F - 68.0 °F 69% 30.01 in - North 3.5 mph - N/A   Clear
6:20 AM 77.0 °F - 68.0 °F 74% 30.01 in - Variable 1.2 mph - N/A   Clear
6:50 AM 78.8 °F - 69.8 °F 74% 30.01 in - Calm Calm - N/A   Clear
7:20 AM 80.6 °F 83.2 °F 68.0 °F 65% 30.01 in - Calm Calm - N/A   Clear
7:50 AM 82.4 °F 85.4 °F 68.0 °F 62% 30.01 in - Calm Calm - N/A   Clear
8:20 AM 84.2 °F 87.3 °F 68.0 °F 58% 30.01 in - Calm Calm - N/A   Clear
8:50 AM 86.0 °F 89.4 °F 68.0 °F 55% 30.01 in - Variable 2.3 mph - N/A   Clear
9:20 AM 87.8 °F 92.6 °F 69.8 °F 55% 30.01 in - Variable 2.3 mph - N/A   Clear
9:50 AM 89.6 °F 94.7 °F 69.8 °F 52% 30.01 in - Variable 2.3 mph - N/A   Clear
10:20 AM 87.8 °F 92.6 °F 69.8 °F 55% 30.01 in - SW 3.5 mph - N/A   Clear
10:50 AM 89.6 °F 98.2 °F 73.4 °F 59% 30.01 in - South 5.8 mph - N/A   Clear
11:20 AM 89.6 °F 98.2 °F 73.4 °F 59% 30.01 in - South 5.8 mph - N/A   Clear
11:50 AM 89.6 °F 98.2 °F 73.4 °F 59% 30.01 in - South 6.9 mph - N/A   Clear
12:20 PM 89.6 °F 99.8 °F 75.2 °F 62% 30.01 in - South 6.9 mph - N/A   Clear
12:50 PM 91.4 °F 102.5 °F 75.2 °F 59% 30.01 in - South 8.1 mph - N/A   Clear
1:20 PM 89.6 °F 99.8 °F 75.2 °F 62% 30.01 in - South 9.2 mph - N/A   Clear
1:50 PM 91.4 °F 105.1 °F 77.0 °F 63% 30.01 in - South 9.2 mph - N/A   Clear
2:20 PM 89.6 °F 99.8 °F 75.2 °F 62% 29.98 in - South 9.2 mph - N/A   Clear
2:50 PM 91.4 °F 105.1 °F 77.0 °F 63% 29.98 in - South 9.2 mph - N/A   Clear
3:20 PM 87.8 °F 97.6 °F 75.2 °F 66% 29.98 in - SSW 9.2 mph - N/A   Clear
3:50 PM 89.6 °F 99.8 °F 75.2 °F 62% 29.98 in - South 10.4 mph - N/A   Clear
4:20 PM 89.6 °F 102.2 °F 77.0 °F 66% 29.98 in - South 8.1 mph - N/A   Clear
4:50 PM 87.8 °F 99.7 °F 77.0 °F 70% 29.95 in - North - - N/A   Clear
5:20 PM 87.8 °F 97.6 °F 75.2 °F 66% 29.95 in - North - - N/A   Clear
5:50 PM 86.0 °F 93.4 °F 73.4 °F 66% 29.95 in - South 8.1 mph - N/A   Clear
6:20 PM 86.0 °F 93.4 °F 73.4 °F 66% 29.95 in - South 5.8 mph - N/A   Clear
6:50 PM 87.8 °F 91.4 °F 68.0 °F 52% 29.98 in - South 4.6 mph - N/A   Clear
7:20 PM 86.0 °F 89.4 °F 68.0 °F 55% 29.98 in - South 4.6 mph - N/A   Clear
7:50 PM 84.2 °F 87.3 °F 68.0 °F 58% 29.98 in - South 4.6 mph - N/A   Clear
8:20 PM 84.2 °F 87.3 °F 68.0 °F 58% 29.98 in - SSW 3.5 mph - N/A   Clear
8:50 PM 84.2 °F 88.4 °F 69.8 °F 62% 29.98 in - South 2.3 mph - N/A   Clear
9:20 PM 82.4 °F 86.3 °F 69.8 °F 66% 29.98 in - Variable 2.3 mph - N/A   Clear
9:50 PM 82.4 °F 86.3 °F 69.8 °F 66% 30.01 in - South 2.3 mph - N/A   Clear
10:20 PM 82.4 °F 86.3 °F 69.8 °F 66% 30.01 in - South 2.3 mph - N/A   Clear
10:50 PM 82.4 °F 87.2 °F 71.6 °F 70% 30.01 in - South 2.3 mph - N/A   Clear
11:20 PM 80.6 °F 84.6 °F 71.6 °F 74% 30.01 in - SSW 2.3 mph - N/A   Clear
11:50 PM 80.6 °F 84.6 °F 71.6 °F 74% 30.01 in - South 2.3 mph - N/A   Clear